[Iaude] MPEC Y02: 2023 XS14 [a=1.12,e=0.19,i=26.6,H=25.7]

mpec at marsden.cfa.harvard.edu mpec at marsden.cfa.harvard.edu
Fri Dec 15 21:07:18 EST 2023


M.P.E.C. 2023-Y02                             Issued 2023 December 16, 02:05 UT

     The Minor Planet Electronic Circulars contain information on unusual
         minor planets, routine data on comets and natural satellites,
         and occasional editorial announcements.  They are published
    on behalf of Division F of the International Astronomical Union by the
          Minor Planet Center, Smithsonian Astrophysical Observatory,
                          Cambridge, MA 02138, U.S.A.
			  
             Prepared using the Tamkin Foundation Computer Network

                              MPC at CFA.HARVARD.EDU
            URL https://www.minorplanetcenter.net/    ISSN 1523-6714

                                   2023 XS14                                    


Observations:
     K23X14S*1C2023 12 15.25207604 51 18.212+21 46 25.28               VEY002G96
     K23X14S 1C2023 12 15.25725404 51 06.912+21 52 50.34               VEY002G96
     K23X14S 1C2023 12 15.26245204 50 55.597+21 59 15.36         18.29GVEY002G96
     K23X14S mC2023 12 15.29657104 49 40.645+22 41 22.56         17.78GVEY002I52
     K23X14S mC2023 12 15.29671804 49 40.321+22 41 33.47         17.86GVEY002I52
     K23X14S mC2023 12 15.29686504 49 39.997+22 41 43.87         18.11GVEY002I52
     K23X14S mC2023 12 15.29701104 49 39.666+22 41 55.07         18.06GVEY002I52
     K23X14S mC2023 12 15.37845904 46 36.106+24 23 17.88         17.94GVEY002I52
     K23X14S mC2023 12 15.37856104 46 35.861+24 23 25.04         17.70GVEY002I52
     K23X14S mC2023 12 15.37866404 46 35.627+24 23 32.93         18.02GVEY002I52
     K23X14S mC2023 12 15.37876504 46 35.389+24 23 40.27         17.41GVEY002I52
     K23X14S  C2023 12 15.72844804 32 51.600+31 54 58.11         18.1 GVEY002O85
     K23X14S  C2023 12 15.73098004 32 44.606+31 58 16.02         18.2 GVEY002O85
     K23X14S  C2023 12 15.73351204 32 37.536+32 01 34.06         18.7 GVEY002O85
     K23X14S  C2023 12 15.73604304 32 30.583+32 04 51.59         18.0 GVEY002O85
     K23X14S  C2023 12 15.73857504 32 23.564+32 08 09.15         18.3 GVEY002O85
     K23X14S  C2023 12 15.74363704 32 09.490+32 14 44.18         18.1 GVEY002O85
     K23X14S  C2023 12 15.74616804 32 02.433+32 18 02.57         18.2 GVEY002O85
     K23X14S KC2023 12 15.77053 04 31 33.67 +32 48 10.3          18.3 GVEY002104
     K23X14S KC2023 12 15.77426 04 31 23.40 +32 53 07.4                VEY002104
     K23X14S KC2023 12 15.77674704 31 16.435+32 56 24.86         17.9 GVEY002M60
     K23X14S KC2023 12 15.77796 04 31 13.22 +32 58 02.1          18.1 GVEY002104
     K23X14S KC2023 12 15.77857404 31 11.285+32 58 51.46         17.5 GVEY002M60
     K23X14S KC2023 12 15.78017004 31 06.852+33 00 58.28         17.3 GVEY002M60
     K23X14S KC2023 12 15.78275 04 30 55.45 +33 04 21.6          18.0 VZEY002M38
     K23X14S KC2023 12 15.78823 04 30 40.18 +33 11 38.9          18.6 VZEY002M38
     K23X14S KC2023 12 15.80172 04 30 06.86 +33 29 37.5          17.9 GXEY002K83
     K23X14S KC2023 12 15.80396 04 30 00.52 +33 32 36.0          18.1 GXEY002K83
     K23X14S KC2023 12 15.80624 04 29 54.06 +33 35 37.5          17.8 GXEY002K83
     K23X14S KC2023 12 15.85017904 27 47.64 +34 33 36.9          17.9 GVEY002587
     K23X14S KC2023 12 15.85052304 27 46.64 +34 34 04.3                VEY002587
     K23X14S KC2023 12 15.85086904 27 45.63 +34 34 31.8                VEY002587
     K23X14S KC2023 12 15.85763604 27 25.95 +34 43 31.1          17.7 GVEY002203
     K23X14S KC2023 12 15.86080804 27 16.59 +34 47 43.2          18.2 GVEY002203
     K23X14S KC2023 12 15.86361304 27 10.428+34 50 31.06         18.4 GVEY002Z80
     K23X14S KC2023 12 15.86417704 27 06.65 +34 52 10.2          18.0 GVEY002203
     K23X14S KB2023 12 15.86862 04 26 51.37 +34 58 05.1                ZEY002106
     K23X14S KB2023 12 15.87095 04 26 44.46 +35 01 09.4          18.2 RZEY002106
     K23X14S KC2023 12 15.87312304 26 42.545+35 03 07.16         18.1 GVEY002Z80
     K23X14S KB2023 12 15.87328 04 26 37.49 +35 04 13.8          18.1 RZEY002106
     K23X14S KB2023 12 15.87540 04 26 31.25 +35 07 01.9          18.3 RZEY002106
     K23X14S KB2023 12 15.90345004 25 07.06 +35 44 00.3          17.9 GXEY002595
     K23X14S KB2023 12 15.90575804 25 00.06 +35 47 02.4          18.0 GXEY002595
     K23X14S KB2023 12 15.90801604 24 53.20 +35 50 00.7          17.5 GXEY002595
     K23X14S KC2023 12 15.93255404 23 40.02 +36 22 16.6                VEY002204
     K23X14S KC2023 12 15.93436704 23 34.42 +36 24 39.6                VEY002204
     K23X14S KC2023 12 15.93634804 23 28.31 +36 27 15.4          18.0 GVEY002204
     K23X14S KB2023 12 15.97511204 21 31.17 +37 18 22.0          17.3 GXEY002958
     K23X14S KB2023 12 15.97648504 21 26.90 +37 20 09.9          17.1 GXEY002958
     K23X14S KB2023 12 15.97783504 21 22.66 +37 21 57.3          17.5 GXEY002958
     K23X14S KC2023 12 16.03422004 18 16.44 +38 34 37.7          17.9 GVEY002L01
     K23X14S KC2023 12 16.03527304 18 13.05 +38 35 59.3          17.7 GVEY002L01
     K23X14S KC2023 12 16.03632304 18 09.64 +38 37 20.6          17.9 GVEY002L01
     K23X14S KC2023 12 16.03737004 18 06.27 +38 38 41.9          17.7 GVEY002L01
     K23X14S KC2023 12 16.03888404 18 01.36 +38 40 39.1          17.7 GVEY002L01

Observer details:
104 San Marcello Pistoiese.  Observers P. Bacci, M. Maestripieri.  Measurer P.
    Bacci.  0.60-m f/4.0 reflector + CCD.
106 Crni Vrh.  Observer H. Mikuz.  0.60-m f/3.3 reflector + CMO.
203 GiaGa Observatory.  Observers S. Foglia, G. Galli.  Measurer G. Galli.
    0.36-m f/5.76 Schmidt-Cassegrain + CCD.
204 Schiaparelli Observatory.  Observers L. Buzzi, G. Galli.  0.84-m f/3.5
    reflector + CCD.
587 Sormano.  Observers F. Manca, A. Testa.  Measurer F. Manca.  0.5-m f/6.8
    reflector + CCD.
595 Farra d'Isonzo.  Observers G. Panterotto, E. Pettarin.  Measurer E.
    Pettarin.  0.40-m f/3.3 reflector + CMO.
958 Observatoire de Dax.  Observers P. Dupouy.  Measurer P. Dupouy.  0.50-m
    f/4.5 Reflector + CMO.
G96 Mt. Lemmon Survey.  Observer J. K. Hogan.  Measurers E. C. Beshore, D.
    Fay, J. B. Fazekas, D. C. Fuls, A. R. Gibbs, A. D. Grauer, H. Groeller, J.
    K. Hogan, R. A. Kowalski, S. M. Larson, G. J. Leonard, D. Rankin, R. L.
    Seaman, F. C. Shelly, K. W. Wierzchos.  1.5-m reflector + 10K CCD.
I52 Steward Observatory, Mt. Lemmon Station.  Observer K. W. Wierzchos.
    Measurers E. C. Beshore, D. Fay, J. B. Fazekas, D. C. Fuls, A. R. Gibbs,
    A. D. Grauer, H. Groeller, J. K. Hogan, R. A. Kowalski, S. M. Larson, G.
    J. Leonard, D. Rankin, R. L. Seaman, F. C. Shelly, K. W. Wierzchos.  1.0-m
    prime focus + CCD.
K83 Beppe Forti Astronomical Observatory, Montelupo.  Observers M. Tombelli,
    A. Mazzanti.  Measurers M. Tombelli, F. Bernardi.  0.40-m f/8 Ritchey-
    Chretien + CCD.
L01 Visnjan Observatory, Tican.  Observer K. Korlevic.  1.0-m f/2.9 reflector
    + CCD.
M38 Harsona Observatory, Nyiregyhaza.  Observer T. Elek.  0.20-m f/3 reflector
    + CCD.
M60 Virgil Observatory, Loiano.  Observer A. Carbognani.  0.3-m f/4.0
    Reflector + CCD.
O85 LiShan Observatory, Lintong.  Observers Y. Yu, K. Tang, A. Pomazan.
    0.50-m f/7.0 Cassegrain + CCD.
Z80 Northolt Branch Observatory.  Observer G. Wells.  0.25-m f/8.0 Ritchey-
    Chretien + CCD.

Orbital elements:
2023 XS14                                                Earth MOID = 0.0190 AU
Epoch 2023 Sept. 13.0 TT = JDT 2460200.5                Veres                   
M 233.17921              (2000.0)            P               Q                  
n   0.83577541     Peri.   67.53131     -0.76929657     -0.45910058             
a   1.1162025      Node    82.51649     +0.28164780     -0.86791206             
e   0.1868902      Incl.   26.62343     +0.57346081     -0.18961886             
P   1.18           H   25.79          G   0.15           U   7                  
Residuals in seconds of arc
231215 G96  0.1-  0.1+    231215 104  0.1-  0.0     231215 Z80  0.8+  0.0
231215 G96 (1.1-  2.5+)   231215 M60  1.1+  0.7-    231215 106  0.6-  0.2-
231215 G96 (1.2-  3.1+)   231215 104  0.3+  0.2-    231215 106  0.3+  0.1-
231215 I52  0.1-  0.1+    231215 M60  0.1-  0.2+    231215 595  0.1-  0.1-
231215 I52  0.1-  0.2+    231215 M60  0.3-  0.1-    231215 595  0.0   0.2-
231215 I52  0.1-  0.3-    231215 M38  1.6-  0.1+    231215 595  0.0   0.2-
231215 I52  0.1-  0.0     231215 M38  0.8-  1.7+    231215 204  0.4-  0.3+
231215 I52  0.2+  0.3+    231215 K83  0.3+  0.7-    231215 204  0.4-  0.4+
231215 I52  0.0   0.1-    231215 K83  0.2+  0.6-    231215 204  0.3-  0.2+
231215 I52  0.1+  0.0     231215 K83  0.1+  0.7-    231215 958  0.8-  0.7-
231215 I52  0.1-  0.2-    231215 587  0.2-  0.4+    231215 958  0.1+  0.6-
231215 O85  0.1+  0.1-    231215 587  0.1-  0.5+    231215 958  0.6+  0.9+
231215 O85  0.3+  0.1-    231215 587  0.1-  0.5+    231216 L01  0.0   0.5-
231215 O85  0.5-  0.1+    231215 203  0.2+  0.1+    231216 L01  0.2+  0.4-
231215 O85  0.3+  0.1-    231215 203  0.1-  0.3+    231216 L01  0.1-  0.4-
231215 O85  0.4+  0.4-    231215 Z80  0.3+  0.7-    231216 L01  0.0   0.2-
231215 O85  0.2+  0.7-    231215 203  0.1-  0.1-    231216 L01  0.2-  0.2-
231215 O85  0.0   0.0     231215 106  0.3-  0.3+
231215 104  0.1-  0.2+    231215 106  0.2-  0.0

Ephemeris:
2023 XS14                a,e,i = 1.12, 0.19, 27                  q = 0.9076
Date    TT    R. A. (2000) Decl.     Delta      r    Elong.  Phase     V
2023 11 16    06 27 42.7 -39 05 06   0.2538  1.0943   108.0    59.3    25.1
...
2023 12 01    06 24 21.2 -36 51 32   0.1300  1.0480   115.1    58.4    23.6
...
2023 12 09    06 07 26.1 -28 33 16   0.06340 1.0238   126.2    50.9    21.7
...
2023 12 15    04 59 10.3 +16 46 43   0.02216 1.0062   170.8     9.0    18.1
2023 12 16    04 20 22.4 +37 50 41   0.02046 1.0034   159.0    20.6    18.4
2023 12 17    03 10 53.9 +57 25 30   0.02220 1.0005   137.1    42.0    19.2
...
2023 12 23    20 03 15.5 +61 36 23   0.06313 0.9840    88.4    87.9    22.8
...
2023 12 31    19 16 36.8 +53 48 51   0.1283  0.9636    77.4    95.1    24.6
...
2024 01 15    19 00 22.0 +48 50 29   0.2458  0.9322    70.8    94.8    26.0

M. P. C. Staff               (C) Copyright 2023 MPC           M.P.E.C. 2023-Y02





More information about the Iaude mailing list